When you browse on this site, cookies collect data to enhance your experience and personalize the content and advertising you see.
Visit our Privacy Policy to learn more. By continuing to use the site, you agree to this use of cookies and data.
  • In Czech Republic
  • List of Countries
  • For 7 days
  • Water Temperature
  • Weather Map
  • Weather Widgets
  • user-avatar
    Login

    Hourly Weather Bregenz

    Today, 12 December, Thursday

    Time Temperature Precipitation Wind Pressure Humidity
    00:00 -2°C° 0.6 mm 1 mps 637 mmHg 93%
    01:00 -2°C° 0 mm 1 mps 637 mmHg 96%
    02:00 -2°C° 0.4 mm 1 mps 637 mmHg 95%
    03:00 -2°C° 0.4 mm 1 mps 636 mmHg 93%
    04:00 -3°C° 0.4 mm 1 mps 636 mmHg 92%
    05:00 -3°C° 0.4 mm 1 mps 636 mmHg 94%
    06:00 -3°C° 0.4 mm 1 mps 636 mmHg 95%
    07:00 -3°C° 0.4 mm 1 mps 636 mmHg 96%
    08:00 -3°C° 0.5 mm 1 mps 636 mmHg 96%
    09:00 -5°C° 0.5 mm 2 mps 636 mmHg 95%
    10:00 -4°C° 0.5 mm 2 mps 636 mmHg 94%
    11:00 -4°C° 0.1 mm 2 mps 636 mmHg 90%
    12:00 -4°C° 0.1 mm 2 mps 636 mmHg 86%
    13:00 -3°C° 0.1 mm 2 mps 636 mmHg 81%
    14:00 -4°C° 0 mm 2 mps 636 mmHg 83%
    15:00 -3°C° 0 mm 1 mps 635 mmHg 85%
    16:00 -4°C° 0 mm 1 mps 634 mmHg 88%
    17:00 -6°C° 0 mm 1 mps 633 mmHg 87%
    18:00 -7°C° 0 mm 2 mps 633 mmHg 86%
    19:00 -8°C° 0 mm 2 mps 632 mmHg 86%
    20:00 -8°C° 0 mm 2 mps 632 mmHg 82%
    21:00 -10°C° 0 mm 3 mps 631 mmHg 79%
    22:00 -10°C° 0 mm 3 mps 630 mmHg 76%
    23:00 -9°C° 0 mm 3 mps 629 mmHg 73%

    Tomorrow, 13 December, Friday

    Time Temperature Precipitation Wind Pressure Humidity
    00:00 -9°C° 0 mm 3 mps 629 mmHg 71%
    01:00 -9°C° 0 mm 3 mps 628 mmHg 68%
    02:00 -9°C° 0 mm 3 mps 627 mmHg 70%
    03:00 -8°C° 0 mm 3 mps 626 mmHg 71%
    04:00 -8°C° 0 mm 3 mps 626 mmHg 72%
    05:00 -8°C° 0.2 mm 3 mps 625 mmHg 74%
    06:00 -7°C° 0.2 mm 3 mps 624 mmHg 76%
    07:00 -7°C° 0.2 mm 3 mps 624 mmHg 78%
    08:00 -7°C° 0.6 mm 3 mps 624 mmHg 82%
    09:00 -7°C° 0.6 mm 3 mps 624 mmHg 86%
    10:00 -6°C° 0.6 mm 3 mps 624 mmHg 90%
    11:00 -6°C° 1.3 mm 3 mps 624 mmHg 90%
    12:00 -5°C° 1.3 mm 3 mps 624 mmHg 89%
    13:00 -5°C° 1.3 mm 3 mps 625 mmHg 89%
    14:00 -5°C° 0.3 mm 3 mps 625 mmHg 91%
    15:00 -5°C° 0.3 mm 3 mps 625 mmHg 92%
    16:00 -6°C° 0.3 mm 3 mps 625 mmHg 93%
    17:00 -6°C° 0.4 mm 3 mps 626 mmHg 93%
    18:00 -6°C° 0.4 mm 3 mps 627 mmHg 93%
    19:00 -7°C° 0.4 mm 3 mps 628 mmHg 94%
    20:00 -7°C° 0.3 mm 3 mps 629 mmHg 94%
    21:00 -7°C° 0.3 mm 3 mps 629 mmHg 95%
    22:00 -7°C° 0.3 mm 3 mps 630 mmHg 95%
    23:00 -6°C° 0.3 mm 2 mps 631 mmHg 95%

    Day after tomorrow, 14 December, Saturday

    Time Temperature Precipitation Wind Pressure Humidity
    00:00 -6°C° 0.3 mm 2 mps 632 mmHg 94%
    01:00 -6°C° 0.3 mm 2 mps 632 mmHg 94%
    02:00 -6°C° 0 mm 2 mps 632 mmHg 91%
    03:00 -8°C° 0 mm 3 mps 632 mmHg 89%
    04:00 -9°C° 0 mm 3 mps 632 mmHg 87%
    05:00 -8°C° 0.2 mm 3 mps 632 mmHg 87%
    06:00 -8°C° 0.2 mm 3 mps 633 mmHg 88%
    07:00 -7°C° 0.2 mm 3 mps 633 mmHg 89%
    08:00 -7°C° 0.8 mm 4 mps 634 mmHg 90%
    09:00 -5°C° 0.8 mm 4 mps 634 mmHg 92%
    10:00 -5°C° 0.8 mm 4 mps 635 mmHg 93%
    11:00 -4°C° 0.8 mm 4 mps 635 mmHg 94%
    12:00 -2°C° 0.8 mm 3 mps 635 mmHg 95%
    13:00 -1°C° 0.8 mm 3 mps 635 mmHg 95%
    14:00 -1°C° 0.8 mm 3 mps 636 mmHg 96%
    15:00 -1°C° 0.8 mm 3 mps 636 mmHg 96%
    16:00 0°C° 0.8 mm 3 mps 637 mmHg 96%
    17:00 -1°C° 0.1 mm 3 mps 637 mmHg 94%
    18:00 -1°C° 0.1 mm 2 mps 638 mmHg 91%
    19:00 -1°C° 0.1 mm 2 mps 638 mmHg 89%
    20:00 -1°C° 0 mm 2 mps 638 mmHg 87%
    21:00 -1°C° 0 mm 3 mps 638 mmHg 86%
    22:00 -1°C° 0 mm 3 mps 638 mmHg 84%
    23:00 -1°C° 0 mm 3 mps 638 mmHg 82%

    15 December, Sunday

    Time Temperature Precipitation Wind Pressure Humidity
    00:00 -1°C° 0 mm 3 mps 639 mmHg 80%
    01:00 -1°C° 0 mm 2 mps 639 mmHg 78%
    02:00 -2°C° 0 mm 3 mps 639 mmHg 78%
    03:00 -2°C° 0 mm 3 mps 638 mmHg 79%
    04:00 -2°C° 0 mm 3 mps 638 mmHg 79%
    05:00 -4°C° 0 mm 3 mps 638 mmHg 79%
    06:00 -4°C° 0 mm 3 mps 639 mmHg 79%
    07:00 -4°C° 0 mm 3 mps 639 mmHg 79%
    08:00 -2°C° 0 mm 3 mps 639 mmHg 81%
    09:00 -2°C° 0 mm 2 mps 640 mmHg 82%
    10:00 -1°C° 0 mm 2 mps 640 mmHg 83%
    11:00 +1°C° 0 mm 2 mps 641 mmHg 86%
    12:00 +2°C° 0 mm 2 mps 641 mmHg 89%
    13:00 +2°C° 0 mm 2 mps 641 mmHg 92%
    14:00 +2°C° 0 mm 2 mps 641 mmHg 90%
    15:00 +1°C° 0 mm 2 mps 642 mmHg 88%
    16:00 +1°C° 0 mm 2 mps 642 mmHg 86%
    17:00 -1°C° 0 mm 2 mps 642 mmHg 85%
    18:00 -2°C° 0 mm 2 mps 642 mmHg 84%
    19:00 -3°C° 0 mm 2 mps 642 mmHg 82%
    20:00 -3°C° 0 mm 2 mps 642 mmHg 81%
    21:00 -3°C° 0 mm 2 mps 642 mmHg 80%
    22:00 -3°C° 0 mm 2 mps 643 mmHg 79%
    23:00 -3°C° 0 mm 2 mps 643 mmHg 79%

    16 December, Monday

    Time Temperature Precipitation Wind Pressure Humidity
    00:00 -4°C° 0 mm 3 mps 643 mmHg 80%
    01:00 -5°C° 0 mm 3 mps 643 mmHg 80%
    02:00 -5°C° 0 mm 3 mps 642 mmHg 80%
    03:00 -5°C° 0 mm 3 mps 642 mmHg 80%
    04:00 -5°C° 0 mm 3 mps 642 mmHg 80%
    05:00 -4°C° 0 mm 3 mps 642 mmHg 80%
    06:00 -4°C° 0 mm 3 mps 642 mmHg 81%
    07:00 -4°C° 0 mm 3 mps 642 mmHg 81%
    08:00 -2°C° 0 mm 2 mps 642 mmHg 81%
    09:00 -2°C° 0 mm 2 mps 642 mmHg 81%
    10:00 -1°C° 0 mm 2 mps 643 mmHg 81%
    11:00 +1°C° 0 mm 2 mps 642 mmHg 83%
    12:00 +2°C° 0 mm 2 mps 642 mmHg 85%
    13:00 +2°C° 0 mm 2 mps 642 mmHg 86%
    14:00 +2°C° 0 mm 2 mps 642 mmHg 86%
    15:00 +1°C° 0 mm 3 mps 642 mmHg 85%
    16:00 0°C° 0 mm 3 mps 641 mmHg 85%
    17:00 0°C° 0 mm 3 mps 641 mmHg 84%
    18:00 -1°C° 0 mm 3 mps 641 mmHg 83%
    19:00 -1°C° 0 mm 3 mps 641 mmHg 82%
    20:00 -1°C° 0 mm 3 mps 641 mmHg 83%
    21:00 -1°C° 0 mm 3 mps 641 mmHg 83%
    22:00 -1°C° 0 mm 3 mps 641 mmHg 83%
    23:00 0°C° 0 mm 3 mps 641 mmHg 84%

    17 December, Tuesday

    Time Temperature Precipitation Wind Pressure Humidity
    00:00 0°C° 0 mm 3 mps 641 mmHg 84%
    01:00 0°C° 0 mm 3 mps 641 mmHg 85%
    02:00 0°C° 0 mm 3 mps 641 mmHg 85%
    03:00 0°C° 0 mm 3 mps 641 mmHg 86%
    04:00 0°C° 0 mm 3 mps 641 mmHg 86%
    05:00 0°C° 0 mm 3 mps 641 mmHg 86%
    06:00 +1°C° 0 mm 2 mps 641 mmHg 86%
    07:00 +1°C° 0 mm 2 mps 641 mmHg 86%
    08:00 +1°C° 0 mm 2 mps 641 mmHg 87%
    09:00 +1°C° 0 mm 2 mps 641 mmHg 88%
    10:00 +2°C° 0 mm 2 mps 642 mmHg 88%
    11:00 +2°C° 0 mm 2 mps 642 mmHg 89%
    12:00 +3°C° 0 mm 2 mps 642 mmHg 90%
    13:00 +4°C° 0 mm 2 mps 643 mmHg 91%
    14:00 +3°C° 0 mm 2 mps 643 mmHg 91%
    15:00 +2°C° 0 mm 2 mps 643 mmHg 91%
    16:00 +2°C° 0 mm 2 mps 643 mmHg 91%
    17:00 +2°C° 0 mm 2 mps 643 mmHg 90%
    18:00 +1°C° 0 mm 2 mps 644 mmHg 88%
    19:00 +1°C° 0 mm 2 mps 644 mmHg 86%
    20:00 +1°C° 0 mm 2 mps 644 mmHg 85%
    21:00 +1°C° 0 mm 2 mps 645 mmHg 85%
    22:00 +1°C° 0 mm 2 mps 645 mmHg 84%
    23:00 -1°C° 0 mm 2 mps 646 mmHg 84%
    Show more